When you browse on this site, cookies collect data to enhance your experience and personalize the content and advertising you see.
Visit our Privacy Policy to learn more. By continuing to use the site, you agree to this use of cookies and data.
  • In Spain
  • List of Countries
  • For 7 days
  • Water Temperature
  • Satellite Maps
  • Weather Map
  • Weather Widgets
  • user-avatar
    Login

    Hourly Weather Velezhevo

    Today, 24 June, Monday

    Time Temperature Precipitation Wind Pressure Humidity
    00:00 +16°C° 0.3 mm 2 mps 746 mmHg 83%
    01:00 +16°C° 0 mm 2 mps 747 mmHg 82%
    02:00 +16°C° 0 mm 2 mps 747 mmHg 82%
    03:00 +15°C° 0 mm 2 mps 747 mmHg 86%
    04:00 +15°C° 0 mm 2 mps 747 mmHg 86%
    05:00 +15°C° 0 mm 2 mps 747 mmHg 86%
    06:00 +16°C° 0 mm 3 mps 747 mmHg 86%
    07:00 +17°C° 0 mm 3 mps 747 mmHg 82%
    08:00 +18°C° 0 mm 3 mps 748 mmHg 79%
    09:00 +20°C° 0 mm 3 mps 748 mmHg 74%
    10:00 +20°C° 0 mm 3 mps 748 mmHg 68%
    11:00 +21°C° 0 mm 3 mps 748 mmHg 62%
    12:00 +23°C° 0 mm 2 mps 748 mmHg 57%
    13:00 +24°C° 0 mm 3 mps 748 mmHg 55%
    14:00 +24°C° 0 mm 3 mps 748 mmHg 53%
    15:00 +25°C° 0 mm 3 mps 748 mmHg 50%
    16:00 +24°C° 0 mm 3 mps 748 mmHg 54%
    17:00 +24°C° 0 mm 3 mps 748 mmHg 57%
    18:00 +24°C° 0 mm 2 mps 748 mmHg 61%
    19:00 +21°C° 0 mm 2 mps 748 mmHg 65%
    20:00 +19°C° 0 mm 2 mps 749 mmHg 68%
    21:00 +18°C° 0 mm 2 mps 749 mmHg 72%
    22:00 +17°C° 0 mm 2 mps 749 mmHg 71%
    23:00 +16°C° 0 mm 2 mps 749 mmHg 70%

    Tomorrow, 25 June, Tuesday

    Time Temperature Precipitation Wind Pressure Humidity
    00:00 +15°C° 0 mm 1 mps 749 mmHg 69%
    01:00 +14°C° 0 mm 2 mps 750 mmHg 72%
    02:00 +14°C° 0 mm 2 mps 750 mmHg 74%
    03:00 +13°C° 0 mm 2 mps 751 mmHg 76%
    04:00 +13°C° 0 mm 2 mps 751 mmHg 77%
    05:00 +14°C° 0 mm 2 mps 751 mmHg 77%
    06:00 +14°C° 0 mm 2 mps 751 mmHg 78%
    07:00 +16°C° 0 mm 2 mps 751 mmHg 73%
    08:00 +17°C° 0 mm 3 mps 752 mmHg 69%
    09:00 +19°C° 0 mm 3 mps 752 mmHg 64%
    10:00 +20°C° 0 mm 3 mps 752 mmHg 59%
    11:00 +20°C° 0 mm 4 mps 752 mmHg 53%
    12:00 +21°C° 0 mm 4 mps 752 mmHg 48%
    13:00 +21°C° 0 mm 4 mps 752 mmHg 48%
    14:00 +22°C° 0 mm 4 mps 752 mmHg 47%
    15:00 +22°C° 0 mm 4 mps 752 mmHg 47%
    16:00 +21°C° 0 mm 4 mps 752 mmHg 52%
    17:00 +21°C° 0 mm 3 mps 752 mmHg 57%
    18:00 +20°C° 0 mm 3 mps 751 mmHg 62%
    19:00 +19°C° 0 mm 3 mps 751 mmHg 65%
    20:00 +17°C° 0 mm 2 mps 752 mmHg 68%
    21:00 +15°C° 0 mm 2 mps 752 mmHg 70%
    22:00 +15°C° 0 mm 2 mps 752 mmHg 71%
    23:00 +14°C° 0 mm 1 mps 751 mmHg 72%

    Day after tomorrow, 26 June, Wednesday

    Time Temperature Precipitation Wind Pressure Humidity
    00:00 +13°C° 0 mm 1 mps 751 mmHg 73%
    01:00 +13°C° 0 mm 1 mps 751 mmHg 74%
    02:00 +12°C° 0 mm 1 mps 752 mmHg 75%
    03:00 +12°C° 0 mm 1 mps 752 mmHg 75%
    04:00 +13°C° 0 mm 1 mps 751 mmHg 76%
    05:00 +13°C° 0 mm 2 mps 751 mmHg 77%
    06:00 +14°C° 0 mm 2 mps 751 mmHg 77%
    07:00 +15°C° 0 mm 2 mps 751 mmHg 75%
    08:00 +17°C° 0 mm 2 mps 751 mmHg 72%
    09:00 +18°C° 0 mm 3 mps 750 mmHg 69%
    10:00 +19°C° 0.1 mm 3 mps 750 mmHg 65%
    11:00 +21°C° 0.1 mm 3 mps 750 mmHg 60%
    12:00 +22°C° 0.1 mm 4 mps 749 mmHg 56%
    13:00 +21°C° 0.4 mm 3 mps 749 mmHg 60%
    14:00 +21°C° 0.4 mm 3 mps 748 mmHg 64%
    15:00 +21°C° 0.4 mm 3 mps 748 mmHg 68%
    16:00 +19°C° 0.9 mm 3 mps 747 mmHg 77%
    17:00 +16°C° 0.9 mm 2 mps 747 mmHg 86%
    18:00 +14°C° 0.9 mm 2 mps 746 mmHg 95%
    19:00 +14°C° 0.4 mm 2 mps 746 mmHg 95%
    20:00 +14°C° 0.4 mm 1 mps 746 mmHg 96%
    21:00 +13°C° 0.4 mm 1 mps 746 mmHg 96%
    22:00 +13°C° 0 mm 1 mps 745 mmHg 96%
    23:00 +13°C° 0 mm 1 mps 745 mmHg 96%

    27 June, Thursday

    Time Temperature Precipitation Wind Pressure Humidity
    00:00 +13°C° 0 mm 2 mps 744 mmHg 96%
    01:00 +12°C° 0 mm 1 mps 744 mmHg 96%
    02:00 +12°C° 0 mm 1 mps 744 mmHg 96%
    03:00 +11°C° 0 mm 1 mps 743 mmHg 95%
    04:00 +12°C° 0 mm 1 mps 743 mmHg 94%
    05:00 +12°C° 0 mm 1 mps 742 mmHg 93%
    06:00 +13°C° 0 mm 1 mps 742 mmHg 92%
    07:00 +13°C° 0 mm 2 mps 741 mmHg 92%
    08:00 +14°C° 0 mm 2 mps 741 mmHg 92%
    09:00 +13°C° 0 mm 3 mps 740 mmHg 91%
    10:00 +13°C° 1.2 mm 4 mps 739 mmHg 92%
    11:00 +13°C° 1.2 mm 5 mps 738 mmHg 94%
    12:00 +13°C° 1.2 mm 5 mps 738 mmHg 95%
    13:00 +13°C° 4.5 mm 5 mps 737 mmHg 96%
    14:00 +13°C° 4.5 mm 6 mps 736 mmHg 96%
    15:00 +13°C° 4.5 mm 6 mps 735 mmHg 97%
    16:00 +14°C° 6.6 mm 6 mps 734 mmHg 97%
    17:00 +14°C° 6.6 mm 6 mps 733 mmHg 98%
    18:00 +15°C° 6.6 mm 6 mps 732 mmHg 98%
    19:00 +15°C° 6.7 mm 5 mps 731 mmHg 98%
    20:00 +15°C° 6.7 mm 5 mps 730 mmHg 98%
    21:00 +17°C° 6.7 mm 4 mps 729 mmHg 98%
    22:00 +17°C° 2.5 mm 4 mps 728 mmHg 98%
    23:00 +17°C° 2.5 mm 4 mps 727 mmHg 97%

    28 June, Friday

    Time Temperature Precipitation Wind Pressure Humidity
    00:00 +17°C° 2.5 mm 4 mps 727 mmHg 97%
    01:00 +17°C° 1 mm 4 mps 726 mmHg 97%
    02:00 +15°C° 1 mm 4 mps 725 mmHg 97%
    03:00 +15°C° 1 mm 4 mps 725 mmHg 97%
    04:00 +15°C° 0.2 mm 4 mps 724 mmHg 96%
    05:00 +14°C° 0.2 mm 5 mps 724 mmHg 96%
    06:00 +14°C° 0.2 mm 5 mps 723 mmHg 95%
    07:00 +14°C° 0 mm 5 mps 723 mmHg 94%
    08:00 +14°C° 0 mm 5 mps 723 mmHg 92%
    09:00 +14°C° 0 mm 6 mps 723 mmHg 91%
    10:00 +14°C° 0.1 mm 6 mps 723 mmHg 89%
    11:00 +14°C° 0.1 mm 6 mps 723 mmHg 87%
    12:00 +15°C° 0.1 mm 6 mps 722 mmHg 85%
    13:00 +15°C° 0.2 mm 6 mps 722 mmHg 85%
    14:00 +14°C° 0.2 mm 6 mps 722 mmHg 85%
    15:00 +14°C° 0.2 mm 6 mps 722 mmHg 85%
    16:00 +13°C° 0.5 mm 5 mps 722 mmHg 88%
    17:00 +13°C° 0.5 mm 4 mps 722 mmHg 91%
    18:00 +12°C° 0.5 mm 3 mps 722 mmHg 94%
    19:00 +12°C° 0.5 mm 3 mps 722 mmHg 95%
    20:00 +12°C° 0.5 mm 2 mps 722 mmHg 97%
    21:00 +12°C° 0.5 mm 2 mps 722 mmHg 98%
    22:00 +12°C° 0.5 mm 2 mps 722 mmHg 98%
    23:00 +11°C° 0.5 mm 3 mps 722 mmHg 98%

    29 June, Saturday

    Time Temperature Precipitation Wind Pressure Humidity
    00:00 +11°C° 0.5 mm 3 mps 722 mmHg 98%
    01:00 +11°C° 0.5 mm 3 mps 721 mmHg 98%
    02:00 +11°C° 0.5 mm 3 mps 721 mmHg 98%
    03:00 +11°C° 0.5 mm 3 mps 721 mmHg 98%
    04:00 +11°C° 0.4 mm 3 mps 721 mmHg 98%
    05:00 +11°C° 0.4 mm 3 mps 721 mmHg 97%
    06:00 +11°C° 0.4 mm 3 mps 721 mmHg 97%
    07:00 +11°C° 0.3 mm 3 mps 721 mmHg 97%
    08:00 +12°C° 0.3 mm 3 mps 721 mmHg 96%
    09:00 +12°C° 0.3 mm 3 mps 721 mmHg 96%
    10:00 +12°C° 0.6 mm 3 mps 721 mmHg 94%
    11:00 +13°C° 0.6 mm 3 mps 722 mmHg 93%
    12:00 +13°C° 0.6 mm 3 mps 722 mmHg 92%
    13:00 +13°C° 0.6 mm 3 mps 722 mmHg 92%
    14:00 +13°C° 0.6 mm 3 mps 723 mmHg 92%
    15:00 +13°C° 0.6 mm 3 mps 723 mmHg 93%
    16:00 +14°C° 0.4 mm 2 mps 723 mmHg 93%
    17:00 +14°C° 0.4 mm 2 mps 723 mmHg 94%
    18:00 +14°C° 0.4 mm 2 mps 724 mmHg 95%
    19:00 +13°C° 0.4 mm 2 mps 724 mmHg 95%
    20:00 +13°C° 0.4 mm 2 mps 724 mmHg 96%
    21:00 +13°C° 0.4 mm 1 mps 724 mmHg 97%
    22:00 +12°C° 0.3 mm 1 mps 724 mmHg 97%
    23:00 +12°C° 0.3 mm 1 mps 724 mmHg 97%
    Show more